When you browse on this site, cookies collect data to enhance your experience and personalize the content and advertising you see.
Visit our Privacy Policy to learn more. By continuing to use the site, you agree to this use of cookies and data.
  • en Suisse
  • Liste des pays
  • À 7 jours
  • Température de l'eau
  • Carte satellitaire
  • Carte météo
  • Widgets météo
  • user-avatar
    Se connecter

    Météo par heure à Korçё

    Ce jour, 21 Janvier, Lundi

    Heure Température Précipitation Vent Pression Humidité
    00:00 0°C° 0 mm 1 m/s 662 mmHg 86%
    01:00 0°C° 0 mm 1 m/s 662 mmHg 85%
    02:00 0°C° 0 mm 1 m/s 662 mmHg 84%
    03:00 0°C° 0 mm 1 m/s 662 mmHg 83%
    04:00 0°C° 0 mm 1 m/s 662 mmHg 82%
    05:00 0°C° 0 mm 1 m/s 662 mmHg 81%
    06:00 0°C° 0 mm 1 m/s 662 mmHg 80%
    07:00 -2°C° 0 mm 2 m/s 662 mmHg 78%
    08:00 +1°C° 0 mm 2 m/s 663 mmHg 76%
    09:00 +2°C° 0 mm 2 m/s 664 mmHg 75%
    10:00 +5°C° 0 mm 1 m/s 664 mmHg 73%
    11:00 +4°C° 0 mm 2 m/s 664 mmHg 72%
    12:00 +5°C° 0 mm 2 m/s 664 mmHg 72%
    13:00 +5°C° 0 mm 2 m/s 664 mmHg 71%
    14:00 +5°C° 0 mm 2 m/s 664 mmHg 74%
    15:00 +4°C° 0 mm 2 m/s 664 mmHg 77%
    16:00 +5°C° 0 mm 1 m/s 664 mmHg 80%
    17:00 +3°C° 0 mm 2 m/s 664 mmHg 83%
    18:00 +2°C° 0 mm 2 m/s 663 mmHg 86%
    19:00 +1°C° 0 mm 2 m/s 663 mmHg 89%
    20:00 +1°C° 0 mm 2 m/s 663 mmHg 89%
    21:00 +1°C° 0 mm 2 m/s 663 mmHg 89%
    22:00 +1°C° 0 mm 2 m/s 663 mmHg 89%
    23:00 +1°C° 0 mm 2 m/s 663 mmHg 89%

    Demain, 22 Janvier, Mardi

    Heure Température Précipitation Vent Pression Humidité
    00:00 +1°C° 0 mm 2 m/s 663 mmHg 89%
    01:00 -1°C° 0 mm 2 m/s 663 mmHg 88%
    02:00 -1°C° 0 mm 2 m/s 662 mmHg 88%
    03:00 -1°C° 0 mm 2 m/s 662 mmHg 88%
    04:00 -1°C° 0 mm 2 m/s 662 mmHg 88%
    05:00 0°C° 0.4 mm 3 m/s 661 mmHg 88%
    06:00 0°C° 0.4 mm 3 m/s 661 mmHg 88%
    07:00 0°C° 0.4 mm 3 m/s 661 mmHg 88%
    08:00 +1°C° 0.5 mm 3 m/s 661 mmHg 89%
    09:00 +1°C° 0.5 mm 3 m/s 661 mmHg 89%
    10:00 +1°C° 0.5 mm 3 m/s 661 mmHg 89%
    11:00 +1°C° 1.3 mm 3 m/s 661 mmHg 90%
    12:00 +1°C° 1.3 mm 3 m/s 660 mmHg 92%
    13:00 +1°C° 1.3 mm 3 m/s 659 mmHg 93%
    14:00 +1°C° 1.3 mm 3 m/s 659 mmHg 93%
    15:00 +1°C° 1.3 mm 3 m/s 658 mmHg 93%
    16:00 +1°C° 1.3 mm 3 m/s 658 mmHg 94%
    17:00 +1°C° 1.6 mm 3 m/s 658 mmHg 94%
    18:00 +1°C° 1.6 mm 3 m/s 658 mmHg 95%
    19:00 +1°C° 1.6 mm 3 m/s 657 mmHg 96%
    20:00 +1°C° 0.3 mm 3 m/s 657 mmHg 97%
    21:00 +1°C° 0.3 mm 3 m/s 657 mmHg 97%
    22:00 0°C° 0.3 mm 3 m/s 657 mmHg 98%
    23:00 0°C° 0.2 mm 3 m/s 657 mmHg 98%

    Après-demain, 23 Janvier, Mercredi

    Heure Température Précipitation Vent Pression Humidité
    00:00 0°C° 0.2 mm 3 m/s 657 mmHg 98%
    01:00 0°C° 0.2 mm 3 m/s 657 mmHg 98%
    02:00 -1°C° 0 mm 3 m/s 657 mmHg 98%
    03:00 -1°C° 0 mm 3 m/s 656 mmHg 97%
    04:00 -1°C° 0 mm 3 m/s 656 mmHg 97%
    05:00 -1°C° 0.2 mm 3 m/s 656 mmHg 97%
    06:00 -1°C° 0.2 mm 3 m/s 656 mmHg 96%
    07:00 -1°C° 0.2 mm 3 m/s 656 mmHg 96%
    08:00 0°C° 0 mm 3 m/s 656 mmHg 94%
    09:00 +1°C° 0 mm 3 m/s 656 mmHg 92%
    10:00 +1°C° 0 mm 3 m/s 657 mmHg 91%
    11:00 +2°C° 0 mm 3 m/s 656 mmHg 88%
    12:00 +2°C° 0 mm 3 m/s 656 mmHg 85%
    13:00 +3°C° 0 mm 3 m/s 655 mmHg 82%
    14:00 +3°C° 0 mm 2 m/s 655 mmHg 84%
    15:00 +3°C° 0 mm 2 m/s 654 mmHg 85%
    16:00 +2°C° 0 mm 2 m/s 654 mmHg 87%
    17:00 +3°C° 0.4 mm 1 m/s 653 mmHg 88%
    18:00 +3°C° 0.4 mm 1 m/s 653 mmHg 88%
    19:00 +2°C° 0.4 mm 1 m/s 653 mmHg 89%
    20:00 +2°C° 0.5 mm 1 m/s 653 mmHg 89%
    21:00 +2°C° 0.5 mm 1 m/s 653 mmHg 90%
    22:00 +2°C° 0.5 mm 1 m/s 652 mmHg 90%
    23:00 +2°C° 1.3 mm 1 m/s 652 mmHg 91%

    24 Janvier, Jeudi

    Heure Température Précipitation Vent Pression Humidité
    00:00 +2°C° 1.3 mm 1 m/s 651 mmHg 92%
    01:00 +2°C° 1.3 mm 1 m/s 651 mmHg 93%
    02:00 +2°C° 0.9 mm 1 m/s 650 mmHg 93%
    03:00 +2°C° 0.9 mm 1 m/s 650 mmHg 93%
    04:00 +2°C° 0.9 mm 1 m/s 649 mmHg 93%
    05:00 +1°C° 0.6 mm 2 m/s 649 mmHg 92%
    06:00 +1°C° 0.6 mm 2 m/s 649 mmHg 92%
    07:00 +1°C° 0.6 mm 2 m/s 649 mmHg 92%
    08:00 +1°C° 0.3 mm 2 m/s 649 mmHg 92%
    09:00 +3°C° 0.3 mm 1 m/s 649 mmHg 92%
    10:00 +3°C° 0.3 mm 1 m/s 650 mmHg 92%
    11:00 +3°C° 0.6 mm 1 m/s 650 mmHg 93%
    12:00 +3°C° 0.6 mm 1 m/s 650 mmHg 93%
    13:00 +2°C° 0.6 mm 0 m/s 650 mmHg 94%
    14:00 +3°C° 0.7 mm 1 m/s 650 mmHg 94%
    15:00 +3°C° 0.7 mm 1 m/s 650 mmHg 95%
    16:00 +3°C° 0.7 mm 1 m/s 650 mmHg 95%
    17:00 +2°C° 0.1 mm 1 m/s 650 mmHg 96%
    18:00 +2°C° 0.1 mm 1 m/s 651 mmHg 96%
    19:00 +1°C° 0.1 mm 1 m/s 651 mmHg 96%
    20:00 +1°C° 0 mm 1 m/s 651 mmHg 95%
    21:00 -2°C° 0 mm 2 m/s 651 mmHg 93%
    22:00 -2°C° 0 mm 2 m/s 651 mmHg 92%
    23:00 -2°C° 0.5 mm 2 m/s 651 mmHg 92%

    25 Janvier, Vendredi

    Heure Température Précipitation Vent Pression Humidité
    00:00 -2°C° 0.5 mm 2 m/s 651 mmHg 92%
    01:00 -1°C° 0.5 mm 2 m/s 651 mmHg 92%
    02:00 -1°C° 1 mm 2 m/s 651 mmHg 92%
    03:00 -1°C° 1 mm 2 m/s 651 mmHg 93%
    04:00 -1°C° 1 mm 2 m/s 651 mmHg 93%
    05:00 -1°C° 1.2 mm 2 m/s 651 mmHg 93%
    06:00 -1°C° 1.2 mm 2 m/s 651 mmHg 93%
    07:00 -1°C° 1.2 mm 2 m/s 651 mmHg 93%
    08:00 -1°C° 0.7 mm 2 m/s 652 mmHg 93%
    09:00 -1°C° 0.7 mm 2 m/s 652 mmHg 94%
    10:00 -1°C° 0.7 mm 2 m/s 652 mmHg 94%
    11:00 -1°C° 0.8 mm 2 m/s 651 mmHg 95%
    12:00 +1°C° 0.8 mm 2 m/s 651 mmHg 95%
    13:00 +2°C° 0.8 mm 1 m/s 651 mmHg 95%
    14:00 +2°C° 0.3 mm 1 m/s 651 mmHg 95%
    15:00 +1°C° 0.3 mm 1 m/s 651 mmHg 94%
    16:00 +1°C° 0.3 mm 1 m/s 651 mmHg 94%
    17:00 +1°C° 0.2 mm 1 m/s 651 mmHg 93%
    18:00 0°C° 0.2 mm 1 m/s 651 mmHg 92%
    19:00 -2°C° 0.2 mm 2 m/s 651 mmHg 91%
    20:00 -3°C° 0 mm 2 m/s 651 mmHg 91%
    21:00 -4°C° 0 mm 2 m/s 651 mmHg 90%
    22:00 -4°C° 0 mm 2 m/s 651 mmHg 90%
    23:00 -5°C° 0 mm 2 m/s 651 mmHg 90%

    26 Janvier, Samedi

    Heure Température Précipitation Vent Pression Humidité
    00:00 -5°C° 0 mm 2 m/s 651 mmHg 90%
    01:00 -5°C° 0 mm 2 m/s 651 mmHg 90%
    02:00 -5°C° 0 mm 2 m/s 651 mmHg 90%
    03:00 -5°C° 0 mm 2 m/s 651 mmHg 90%
    04:00 -6°C° 0 mm 2 m/s 651 mmHg 90%
    05:00 -6°C° 0 mm 2 m/s 652 mmHg 90%
    06:00 -6°C° 0 mm 2 m/s 652 mmHg 90%
    07:00 -6°C° 0 mm 2 m/s 652 mmHg 89%
    08:00 -5°C° 0 mm 2 m/s 653 mmHg 88%
    09:00 -3°C° 0 mm 2 m/s 654 mmHg 87%
    10:00 -2°C° 0 mm 2 m/s 655 mmHg 86%
    11:00 -1°C° 0 mm 2 m/s 655 mmHg 87%
    12:00 -1°C° 0 mm 2 m/s 655 mmHg 87%
    13:00 +1°C° 0 mm 2 m/s 656 mmHg 88%
    14:00 -1°C° 0 mm 2 m/s 656 mmHg 88%
    15:00 -1°C° 0 mm 2 m/s 656 mmHg 88%
    16:00 -2°C° 0 mm 2 m/s 656 mmHg 88%
    17:00 -3°C° 0 mm 2 m/s 656 mmHg 88%
    18:00 -4°C° 0 mm 2 m/s 656 mmHg 88%
    19:00 -5°C° 0 mm 2 m/s 656 mmHg 88%
    20:00 -5°C° 0 mm 2 m/s 656 mmHg 86%
    21:00 -6°C° 0 mm 2 m/s 657 mmHg 85%
    22:00 -6°C° 0 mm 2 m/s 657 mmHg 84%
    23:00 -6°C° 0 mm 2 m/s 657 mmHg 83%
    Voir plus